Precipitable_Water
1.21 1.21 1.24 1.24 1.28 1.32 1.34 1.34 1.35 1.34 1.32 1.29 1.25 1.21 1.11 1.04 0.88 0.84 0.83 0.89 0.92 1.02 1.10 1.01 1.13 1.20 1.24 1.25 1.23 1.16 1.13 1.09 1.07 1.08 1.07 1.04 1.01 1.01 1.01 0.99 0.98 0.98 0.98 0.99 0.99 0.99 1.02 1.04 1.03 1.01 0.99 0.97 0.94 0.92 0.89 0.84 0.80 0.77 0.75 0.74 0.74 0.73 0.72 0.72 0.71 0.70 0.70 0.70 0.71 0.71 0.72 0.74 0.75 0.76
1.22 1.23 1.24 1.25 1.24 1.27 1.26 1.25 1.27 1.25 1.26 1.23 1.20 1.16 1.16 1.15 1.01 0.99 0.90 0.91 1.02 0.99 1.07 1.10 1.09 1.21 1.22 1.24 1.23 1.22 1.20 1.19 1.18 1.12 1.07 1.04 1.03 1.02 1.02 1.01 1.00 1.00 1.00 1.01 1.03 1.05 1.06 1.07 1.07 1.07 1.04 1.02 1.00 0.98 0.95 0.90 0.84 0.82 0.81 0.78 0.77 0.76 0.76 0.75 0.74 0.74 0.75 0.74 0.72 0.72 0.72 0.73 0.74 0.76
1.23 1.20 1.18 1.22 1.21 1.24 1.20 1.20 1.22 1.23 1.24 1.21 1.22 1.21 1.23 1.20 1.17 1.14 1.07 0.92 1.07 1.12 1.03 1.12 1.23 1.23 1.25 1.27 1.25 1.27 1.29 1.29 1.29 1.26 1.21 1.16 1.13 1.10 1.05 1.00 0.97 0.98 1.01 1.04 1.04 1.05 1.06 1.06 1.06 1.06 1.08 1.08 1.07 1.07 1.06 1.01 0.96 0.90 0.87 0.86 0.84 0.82 0.81 0.80 0.79 0.79 0.78 0.78 0.78 0.76 0.74 0.74 0.75 0.77
1.24 1.18 1.13 1.15 1.20 1.25 1.22 1.19 1.20 1.21 1.24 1.26 1.26 1.26 1.25 1.26 1.27 1.23 1.13 1.02 0.98 1.16 1.14 1.18 1.25 1.30 1.30 1.31 1.27 1.28 1.30 1.32 1.31 1.29 1.29 1.29 1.29 1.28 1.21 1.12 1.07 1.05 1.05 1.06 1.07 1.06 1.06 1.04 1.03 1.03 1.04 1.07 1.12 1.13 1.12 1.08 1.05 1.01 0.98 0.95 0.92 0.89 0.86 0.84 0.82 0.82 0.83 0.82 0.80 0.79 0.79 0.78 0.78 0.78
1.23 1.18 1.15 1.15 1.17 1.22 1.18 1.19 1.21 1.23 1.27 1.29 1.29 1.29 1.29 1.27 1.30 1.25 1.18 1.10 1.09 1.20 1.31 1.31 1.31 1.37 1.38 1.33 1.35 1.28 1.27 1.27 1.30 1.33 1.35 1.35 1.34 1.32 1.28 1.22 1.15 1.09 1.08 1.10 1.10 1.11 1.10 1.09 1.08 1.08 1.09 1.13 1.15 1.17 1.16 1.13 1.09 1.06 1.02 0.98 0.96 0.93 0.91 0.88 0.87 0.85 0.83 0.84 0.85 0.82 0.81 0.81 0.81 0.81
1.21 1.19 1.17 1.16 1.17 1.22 1.21 1.23 1.22 1.24 1.27 1.26 1.24 1.25 1.25 1.25 1.26 1.31 1.22 1.17 1.13 1.10 1.26 1.28 1.34 1.29 1.35 1.25 1.30 1.23 1.24 1.27 1.31 1.30 1.31 1.33 1.34 1.34 1.33 1.28 1.22 1.18 1.15 1.16 1.17 1.16 1.15 1.13 1.13 1.15 1.15 1.15 1.14 1.13 1.13 1.11 1.09 1.07 1.05 1.01 0.98 0.95 0.92 0.90 0.89 0.88 0.86 0.85 0.85 0.85 0.83 0.81 0.81 0.82
1.21 1.20 1.18 1.15 1.17 1.23 1.23 1.24 1.23 1.26 1.26 1.27 1.26 1.27 1.29 1.26 1.29 1.32 1.30 1.20 1.16 1.17 1.22 1.32 1.28 1.25 1.25 1.22 1.21 1.27 1.28 1.26 1.25 1.23 1.26 1.31 1.35 1.36 1.33 1.25 1.20 1.19 1.21 1.22 1.23 1.23 1.20 1.17 1.15 1.15 1.13 1.10 1.07 1.04 1.02 1.00 0.98 0.98 0.98 0.98 0.97 0.96 0.94 0.92 0.91 0.88 0.86 0.85 0.85 0.85 0.85 0.85 0.84 0.84
1.25 1.23 1.18 1.14 1.13 1.17 1.18 1.21 1.20 1.22 1.24 1.25 1.24 1.23 1.25 1.24 1.25 1.30 1.32 1.31 1.25 1.24 1.19 1.26 1.26 1.30 1.26 1.25 1.28 1.31 1.32 1.29 1.25 1.24 1.26 1.31 1.31 1.32 1.31 1.27 1.23 1.22 1.22 1.24 1.25 1.24 1.22 1.19 1.16 1.15 1.13 1.11 1.09 1.07 1.03 0.99 0.96 0.94 0.93 0.92 0.92 0.93 0.94 0.94 0.92 0.91 0.89 0.86 0.86 0.87 0.86 0.86 0.86 0.86
1.24 1.22 1.18 1.16 1.13 1.14 1.13 1.15 1.16 1.21 1.20 1.21 1.21 1.21 1.23 1.26 1.32 1.34 1.34 1.33 1.32 1.24 1.18 1.21 1.29 1.32 1.30 1.29 1.27 1.31 1.27 1.28 1.28 1.29 1.28 1.28 1.28 1.28 1.28 1.27 1.26 1.25 1.26 1.26 1.25 1.24 1.21 1.18 1.15 1.14 1.12 1.11 1.11 1.08 1.06 1.02 0.99 0.97 0.94 0.91 0.90 0.91 0.92 0.94 0.94 0.92 0.90 0.89 0.88 0.87 0.86 0.86 0.86 0.87
1.23 1.21 1.19 1.20 1.19 1.17 1.16 1.16 1.20 1.23 1.20 1.22 1.22 1.22 1.24 1.24 1.24 1.25 1.31 1.33 1.28 1.25 1.23 1.21 1.19 1.24 1.20 1.18 1.21 1.29 1.34 1.30 1.26 1.26 1.29 1.32 1.32 1.28 1.24 1.23 1.24 1.24 1.23 1.22 1.23 1.23 1.21 1.20 1.19 1.18 1.16 1.14 1.09 1.05 1.02 1.01 0.99 0.97 0.95 0.92 0.90 0.90 0.91 0.91 0.91 0.90 0.87 0.85 0.84 0.86 0.86 0.86 0.85 0.86
1.27 1.27 1.29 1.30 1.29 1.23 1.21 1.23 1.24 1.23 1.20 1.19 1.20 1.23 1.23 1.24 1.25 1.26 1.27 1.27 1.26 1.25 1.22 1.21 1.20 1.15 1.19 1.21 1.18 1.28 1.37 1.36 1.32 1.23 1.21 1.20 1.26 1.27 1.24 1.18 1.21 1.23 1.23 1.26 1.24 1.22 1.20 1.18 1.14 1.11 1.09 1.07 1.04 1.02 1.02 1.00 0.98 0.96 0.93 0.91 0.88 0.86 0.86 0.87 0.88 0.88 0.86 0.83 0.82 0.85 0.86 0.86 0.85 0.85
1.32 1.31 1.30 1.30 1.31 1.29 1.29 1.27 1.28 1.25 1.20 1.21 1.19 1.23 1.21 1.22 1.24 1.23 1.24 1.24 1.24 1.23 1.21 1.17 1.12 1.16 1.19 1.24 1.30 1.35 1.35 1.29 1.28 1.30 1.24 1.15 1.15 1.16 1.20 1.21 1.17 1.19 1.18 1.16 1.20 1.23 1.22 1.17 1.12 1.08 1.06 1.04 1.02 1.01 1.00 0.98 0.95 0.91 0.87 0.84 0.82 0.80 0.81 0.84 0.87 0.88 0.87 0.86 0.87 0.88 0.88 0.86 0.85 0.84
1.33 1.33 1.32 1.31 1.31 1.33 1.34 1.33 1.31 1.28 1.26 1.24 1.20 1.23 1.27 1.27 1.25 1.23 1.24 1.23 1.22 1.20 1.17 1.14 1.18 1.20 1.20 1.22 1.24 1.24 1.23 1.20 1.18 1.24 1.24 1.17 1.19 1.19 1.15 1.15 1.22 1.20 1.14 1.13 1.14 1.13 1.12 1.05 1.01 1.01 1.00 1.02 1.01 0.99 0.97 0.93 0.90 0.87 0.83 0.80 0.81 0.84 0.88 0.89 0.89 0.89 0.88 0.87 0.87 0.88 0.88 0.85 0.83 0.82
1.32 1.34 1.35 1.35 1.34 1.35 1.36 1.35 1.30 1.26 1.27 1.32 1.31 1.27 1.26 1.27 1.26 1.24 1.21 1.19 1.17 1.14 1.12 1.13 1.15 1.14 1.14 1.18 1.21 1.20 1.23 1.27 1.27 1.22 1.18 1.09 1.10 1.10 1.07 1.09 1.13 1.17 1.13 1.06 1.01 1.02 1.05 0.98 0.95 0.97 0.92 0.93 0.93 0.89 0.87 0.85 0.84 0.83 0.84 0.85 0.86 0.88 0.89 0.89 0.89 0.89 0.89 0.88 0.88 0.87 0.85 0.82 0.78 0.74
1.28 1.32 1.35 1.36 1.37 1.38 1.37 1.34 1.31 1.31 1.31 1.30 1.29 1.29 1.28 1.28 1.25 1.21 1.17 1.14 1.14 1.14 1.13 1.15 1.16 1.14 1.13 1.17 1.21 1.19 1.20 1.21 1.17 1.11 1.09 1.06 1.03 0.97 0.92 0.88 1.01 1.13 1.05 0.98 0.92 0.89 0.94 0.91 0.82 0.83 0.83 0.83 0.83 0.83 0.83 0.85 0.86 0.87 0.88 0.87 0.85 0.84 0.84 0.85 0.85 0.87 0.88 0.85 0.80 0.78 0.76 0.73 0.70 0.68
1.31 1.31 1.34 1.38 1.39 1.39 1.39 1.38 1.38 1.36 1.34 1.31 1.30 1.32 1.32 1.31 1.30 1.28 1.21 1.16 1.15 1.17 1.16 1.15 1.15 1.16 1.14 1.15 1.13 1.07 1.05 1.04 1.05 1.05 1.04 1.01 0.97 0.91 0.90 0.93 0.88 0.98 1.02 0.90 0.82 0.75 0.83 0.85 0.81 0.78 0.79 0.83 0.84 0.83 0.81 0.80 0.80 0.80 0.81 0.81 0.82 0.82 0.83 0.84 0.85 0.82 0.77 0.74 0.72 0.70 0.68 0.68 0.69 0.71
1.31 1.32 1.34 1.36 1.37 1.37 1.38 1.38 1.37 1.34 1.31 1.30 1.29 1.29 1.29 1.29 1.29 1.27 1.28 1.31 1.29 1.28 1.22 1.17 1.15 1.15 1.14 1.06 0.97 0.97 0.99 1.06 0.98 0.98 0.95 0.94 0.93 0.92 0.88 0.86 0.87 0.90 0.97 0.85 0.74 0.69 0.77 0.84 0.81 0.79 0.83 0.87 0.87 0.82 0.78 0.76 0.74 0.72 0.72 0.75 0.79 0.81 0.79 0.75 0.71 0.69 0.67 0.66 0.65 0.66 0.68 0.72 0.77 0.80
1.32 1.33 1.33 1.33 1.34 1.37 1.37 1.35 1.33 1.31 1.29 1.27 1.26 1.25 1.24 1.21 1.23 1.25 1.28 1.32 1.33 1.33 1.26 1.18 1.07 1.07 1.07 0.95 0.95 1.03 1.10 1.04 0.98 0.97 0.93 0.93 0.89 0.86 0.83 0.87 0.88 0.90 0.93 0.80 0.77 0.73 0.78 0.86 0.83 0.79 0.84 0.90 0.89 0.86 0.82 0.76 0.71 0.71 0.71 0.68 0.66 0.66 0.65 0.64 0.62 0.60 0.62 0.66 0.70 0.74 0.79 0.82 0.83 0.83
1.36 1.38 1.40 1.39 1.38 1.36 1.34 1.33 1.31 1.28 1.25 1.24 1.23 1.22 1.22 1.24 1.26 1.31 1.33 1.32 1.31 1.27 1.20 1.12 1.06 1.03 1.05 1.06 1.08 1.11 1.14 1.11 1.08 1.04 0.96 0.92 0.89 0.87 0.90 0.90 0.90 0.87 0.90 0.89 0.85 0.71 0.79 0.89 0.83 0.80 0.85 0.89 0.88 0.85 0.80 0.76 0.72 0.69 0.65 0.62 0.60 0.58 0.56 0.59 0.70 0.79 0.82 0.83 0.84 0.83 0.83 0.83 0.83 0.82
1.41 1.43 1.44 1.42 1.39 1.36 1.32 1.31 1.30 1.29 1.29 1.25 1.22 1.21 1.23 1.27 1.31 1.32 1.34 1.31 1.26 1.19 1.14 1.11 1.09 1.10 1.13 1.13 1.14 1.13 1.10 1.06 1.03 1.00 1.00 0.97 0.90 0.84 0.78 0.72 0.76 0.76 0.87 0.93 0.87 0.79 0.79 0.89 0.82 0.81 0.85 0.81 0.75 0.74 0.71 0.70 0.67 0.63 0.57 0.51 0.51 0.66 0.81 0.86 0.87 0.87 0.88 0.87 0.86 0.86 0.86 0.85 0.84 0.84
1.45 1.45 1.45 1.41 1.36 1.33 1.31 1.30 1.30 1.31 1.30 1.24 1.21 1.21 1.22 1.24 1.23 1.20 1.22 1.20 1.16 1.11 1.08 1.08 1.09 1.09 1.09 1.09 1.08 1.05 1.04 1.03 1.02 0.96 0.85 0.77 0.79 0.75 0.69 0.71 0.75 0.78 0.87 0.92 0.93 0.87 0.79 0.86 0.81 0.73 0.72 0.69 0.65 0.63 0.63 0.62 0.54 0.43 0.46 0.67 0.83 0.87 0.88 0.89 0.89 0.89 0.88 0.87 0.87 0.87 0.88 0.90 0.91 0.92
1.44 1.44 1.42 1.37 1.34 1.34 1.33 1.34 1.34 1.33 1.30 1.23 1.21 1.20 1.18 1.15 1.11 1.09 1.08 1.03 1.02 1.03 1.02 1.01 1.01 1.01 1.00 1.00 0.99 0.98 0.96 0.94 0.92 0.84 0.75 0.80 0.84 0.79 0.79 0.75 0.78 0.82 0.87 0.91 0.99 0.84 0.79 0.79 0.75 0.65 0.63 0.61 0.57 0.52 0.45 0.39 0.45 0.65 0.82 0.89 0.91 0.92 0.92 0.92 0.92 0.92 0.92 0.91 0.91 0.92 0.94 0.95 0.96 0.97
1.40 1.41 1.41 1.43 1.43 1.41 1.39 1.38 1.36 1.34 1.30 1.23 1.21 1.19 1.14 1.06 0.98 0.97 0.97 0.94 0.92 0.92 0.91 0.92 0.93 0.92 0.90 0.87 0.84 0.85 0.87 0.90 0.92 0.94 0.91 0.92 0.88 0.82 0.82 0.83 0.83 0.79 0.84 0.99 0.96 0.77 0.72 0.69 0.66 0.62 0.50 0.40 0.40 0.42 0.46 0.59 0.72 0.83 0.89 0.90 0.91 0.92 0.93 0.94 0.93 0.93 0.93 0.95 0.97 0.99 1.01 1.04 1.06 1.05
1.33 1.35 1.37 1.40 1.41 1.39 1.38 1.36 1.32 1.29 1.28 1.22 1.20 1.17 1.06 0.96 0.89 0.97 0.95 0.95 0.93 0.90 0.88 0.86 0.85 0.82 0.82 0.82 0.84 0.86 0.87 0.90 0.94 0.95 0.97 0.98 0.96 0.91 0.89 0.89 0.86 0.76 0.75 0.83 0.83 0.69 0.64 0.63 0.56 0.55 0.43 0.35 0.36 0.50 0.63 0.70 0.78 0.85 0.90 0.91 0.90 0.93 0.95 0.96 0.95 0.95 0.96 0.99 1.02 1.04 1.06 1.07 1.09 1.09
1.25 1.27 1.31 1.33 1.33 1.31 1.31 1.31 1.28 1.25 1.24 1.22 1.16 1.07 0.97 0.95 0.96 0.95 0.90 0.89 0.89 0.85 0.84 0.82 0.80 0.78 0.79 0.83 0.86 0.87 0.86 0.88 0.92 0.96 0.94 0.93 0.91 0.86 0.79 0.76 0.74 0.72 0.74 0.76 0.73 0.62 0.51 0.50 0.43 0.42 0.45 0.53 0.58 0.62 0.69 0.74 0.80 0.85 0.90 0.91 0.90 0.94 0.96 0.96 0.96 0.96 0.99 1.03 1.06 1.08 1.08 1.10 1.12 1.15
1.25 1.24 1.24 1.25 1.30 1.32 1.29 1.23 1.20 1.19 1.17 1.12 1.04 0.99 0.98 0.96 0.92 0.89 0.89 0.87 0.85 0.83 0.80 0.77 0.75 0.78 0.80 0.80 0.81 0.83 0.85 0.87 0.90 0.88 0.86 0.86 0.85 0.85 0.82 0.77 0.71 0.65 0.61 0.62 0.57 0.50 0.48 0.47 0.50 0.54 0.58 0.60 0.62 0.68 0.68 0.72 0.79 0.85 0.89 0.91 0.94 0.96 0.98 0.97 0.96 0.95 0.98 1.02 1.06 1.08 1.10 1.13 1.16 1.20
1.18 1.22 1.24 1.26 1.28 1.25 1.20 1.17 1.14 1.11 1.05 0.99 0.97 0.95 0.92 0.90 0.89 0.88 0.86 0.84 0.80 0.76 0.72 0.72 0.74 0.76 0.76 0.72 0.72 0.73 0.75 0.75 0.74 0.72 0.72 0.72 0.72 0.71 0.71 0.68 0.63 0.56 0.51 0.49 0.52 0.56 0.60 0.60 0.65 0.64 0.63 0.67 0.66 0.71 0.75 0.74 0.75 0.83 0.85 0.91 0.94 0.97 1.00 0.99 0.95 0.94 0.97 1.01 1.06 1.10 1.13 1.17 1.22 1.26
1.18 1.18 1.19 1.21 1.22 1.16 1.13 1.11 1.08 1.02 0.99 0.95 0.93 0.90 0.89 0.87 0.87 0.86 0.84 0.80 0.75 0.71 0.72 0.73 0.74 0.71 0.70 0.66 0.61 0.61 0.65 0.64 0.64 0.63 0.63 0.63 0.62 0.59 0.56 0.54 0.53 0.52 0.53 0.56 0.60 0.66 0.69 0.68 0.69 0.72 0.74 0.72 0.71 0.69 0.68 0.76 0.79 0.80 0.80 0.88 0.93 0.96 0.98 1.00 0.97 0.96 0.99 1.04 1.07 1.11 1.15 1.18 1.25 1.30
1.20 1.19 1.19 1.17 1.12 1.09 1.09 1.08 1.06 1.02 0.98 0.94 0.91 0.89 0.88 0.88 0.87 0.86 0.84 0.80 0.78 0.74 0.73 0.74 0.75 0.72 0.68 0.65 0.63 0.64 0.65 0.64 0.57 0.56 0.57 0.58 0.58 0.58 0.57 0.55 0.53 0.52 0.54 0.57 0.62 0.67 0.71 0.71 0.70 0.72 0.73 0.76 0.73 0.72 0.72 0.69 0.74 0.78 0.85 0.85 0.83 0.91 0.96 0.98 0.97 0.97 1.00 1.05 1.09 1.15 1.17 1.21 1.23 1.30
1.17 1.14 1.13 1.10 1.09 1.09 1.08 1.06 1.02 0.98 0.96 0.93 0.90 0.90 0.90 0.90 0.89 0.89 0.87 0.85 0.81 0.76 0.76 0.77 0.75 0.73 0.69 0.67 0.68 0.68 0.65 0.55 0.49 0.52 0.52 0.51 0.50 0.52 0.49 0.45 0.43 0.47 0.51 0.54 0.57 0.60 0.64 0.67 0.68 0.71 0.72 0.73 0.74 0.71 0.73 0.74 0.75 0.82 0.88 0.87 0.88 0.93 0.97 0.99 0.98 1.01 1.03 1.03 1.09 1.14 1.19 1.24 1.28 1.32
1.12 1.10 1.09 1.08 1.09 1.08 1.06 1.03 1.00 0.96 0.96 0.94 0.93 0.92 0.92 0.92 0.93 0.94 0.92 0.89 0.83 0.79 0.78 0.78 0.78 0.76 0.74 0.76 0.73 0.62 0.57 0.51 0.48 0.51 0.50 0.48 0.47 0.46 0.46 0.44 0.41 0.41 0.45 0.49 0.52 0.54 0.57 0.62 0.67 0.71 0.68 0.69 0.72 0.74 0.78 0.82 0.80 0.82 0.87 0.91 0.90 0.79 0.84 0.92 0.96 0.99 1.03 1.06 1.10 1.14 1.19 1.23 1.29 1.35
1.07 1.06 1.06 1.08 1.07 1.03 0.98 0.95 0.94 0.94 0.96 0.95 0.94 0.92 0.93 0.95 0.97 0.97 0.96 0.91 0.85 0.82 0.81 0.81 0.81 0.77 0.76 0.69 0.64 0.60 0.53 0.47 0.45 0.48 0.47 0.46 0.44 0.45 0.45 0.41 0.39 0.40 0.40 0.43 0.46 0.51 0.55 0.61 0.64 0.69 0.74 0.75 0.73 0.77 0.82 0.83 0.81 0.84 0.87 0.91 0.92 0.91 0.93 0.92 0.94 0.98 1.03 1.05 1.06 1.08 1.14 1.20 1.23 1.30
1.03 1.02 1.01 0.99 0.97 0.93 0.89 0.88 0.89 0.91 0.93 0.94 0.95 0.95 0.96 0.96 0.95 0.92 0.87 0.82 0.80 0.80 0.80 0.78 0.77 0.73 0.68 0.65 0.64 0.57 0.45 0.42 0.44 0.47 0.46 0.45 0.44 0.43 0.43 0.40 0.40 0.40 0.39 0.39 0.41 0.40 0.46 0.57 0.65 0.70 0.76 0.83 0.86 0.84 0.82 0.77 0.81 0.87 0.87 0.89 0.90 0.88 0.89 0.94 0.96 0.96 1.01 1.01 1.02 1.06 1.09 1.17 1.23 1.27
0.96 0.95 0.93 0.93 0.90 0.89 0.87 0.86 0.88 0.91 0.94 0.94 0.93 0.94 0.94 0.94 0.92 0.88 0.86 0.83 0.81 0.80 0.78 0.73 0.68 0.66 0.65 0.63 0.60 0.50 0.40 0.42 0.44 0.46 0.44 0.43 0.44 0.41 0.40 0.40 0.40 0.42 0.42 0.40 0.37 0.40 0.50 0.56 0.61 0.68 0.79 0.84 0.86 0.88 0.88 0.85 0.83 0.86 0.87 0.88 0.87 0.82 0.85 0.91 0.93 0.96 1.00 1.01 1.03 1.01 1.04 1.09 1.18 1.24
0.92 0.91 0.89 0.89 0.89 0.89 0.89 0.89 0.91 0.95 0.97 0.94 0.91 0.88 0.88 0.88 0.87 0.87 0.84 0.78 0.72 0.69 0.68 0.67 0.65 0.64 0.62 0.60 0.57 0.47 0.41 0.41 0.41 0.40 0.43 0.44 0.43 0.42 0.41 0.40 0.40 0.40 0.39 0.37 0.38 0.45 0.51 0.53 0.56 0.62 0.69 0.72 0.70 0.75 0.93 0.93 0.85 0.83 0.85 0.85 0.86 0.84 0.83 0.86 0.90 0.95 1.00 1.02 1.05 1.01 1.02 1.06 1.09 1.18
0.92 0.92 0.90 0.89 0.89 0.90 0.89 0.91 0.94 0.96 0.94 0.90 0.87 0.85 0.82 0.82 0.86 0.84 0.78 0.74 0.71 0.69 0.68 0.66 0.63 0.60 0.57 0.56 0.53 0.44 0.41 0.38 0.37 0.39 0.40 0.41 0.41 0.40 0.41 0.41 0.39 0.37 0.37 0.38 0.40 0.45 0.49 0.52 0.57 0.63 0.62 0.62 0.61 0.58 0.61 0.88 0.93 0.88 0.81 0.78 0.81 0.81 0.83 0.85 0.90 0.96 0.99 1.00 1.04 1.03 0.98 0.98 1.03 1.12
0.93 0.94 0.94 0.93 0.94 0.94 0.92 0.93 0.91 0.91 0.89 0.85 0.81 0.81 0.81 0.80 0.76 0.73 0.73 0.73 0.70 0.68 0.67 0.65 0.60 0.57 0.55 0.49 0.42 0.39 0.36 0.36 0.37 0.39 0.40 0.40 0.39 0.39 0.38 0.37 0.36 0.37 0.38 0.40 0.42 0.44 0.49 0.52 0.59 0.66 0.63 0.60 0.59 0.57 0.61 0.74 0.84 0.99 0.92 0.82 0.82 0.84 0.84 0.85 0.88 0.90 0.97 1.01 1.02 1.03 1.01 1.01 1.02 1.09
0.95 0.97 0.97 0.97 0.95 0.95 0.93 0.91 0.89 0.85 0.82 0.80 0.79 0.78 0.77 0.76 0.76 0.74 0.74 0.72 0.68 0.65 0.63 0.60 0.58 0.57 0.55 0.48 0.34 0.32 0.36 0.40 0.40 0.40 0.38 0.36 0.36 0.37 0.36 0.34 0.36 0.38 0.39 0.40 0.42 0.43 0.50 0.54 0.59 0.64 0.63 0.60 0.59 0.59 0.58 0.68 0.75 0.85 0.99 0.94 0.84 0.82 0.85 0.84 0.83 0.86 0.92 1.00 1.01 1.04 1.05 1.02 1.03 1.08
0.98 0.98 0.98 0.96 0.95 0.92 0.87 0.86 0.83 0.80 0.79 0.79 0.78 0.78 0.77 0.75 0.74 0.72 0.71 0.70 0.68 0.65 0.63 0.60 0.57 0.55 0.53 0.43 0.33 0.36 0.37 0.38 0.37 0.36 0.34 0.34 0.36 0.35 0.34 0.36 0.36 0.38 0.39 0.38 0.39 0.41 0.45 0.49 0.55 0.59 0.62 0.62 0.61 0.64 0.68 0.68 0.71 0.84 0.94 0.98 0.90 0.83 0.82 0.83 0.82 0.87 0.91 0.94 0.99 1.04 1.07 1.11 1.13 1.15
1.01 1.02 0.99 0.95 0.90 0.86 0.86 0.83 0.80 0.79 0.78 0.77 0.76 0.77 0.75 0.73 0.72 0.71 0.70 0.69 0.66 0.63 0.60 0.56 0.51 0.43 0.35 0.30 0.34 0.37 0.39 0.38 0.36 0.33 0.32 0.33 0.34 0.35 0.35 0.37 0.37 0.38 0.37 0.36 0.36 0.37 0.39 0.42 0.45 0.51 0.59 0.66 0.72 0.79 0.82 0.84 0.86 0.89 0.88 0.90 0.91 0.86 0.84 0.86 0.85 0.86 0.89 0.96 0.99 0.97 0.98 1.04 1.01 1.07
1.00 0.97 0.94 0.90 0.86 0.85 0.81 0.77 0.76 0.76 0.75 0.75 0.75 0.73 0.72 0.70 0.67 0.65 0.64 0.62 0.60 0.58 0.55 0.52 0.48 0.43 0.37 0.37 0.38 0.37 0.35 0.34 0.33 0.31 0.31 0.32 0.33 0.34 0.35 0.37 0.37 0.38 0.35 0.34 0.35 0.35 0.36 0.37 0.39 0.50 0.62 0.67 0.76 0.84 0.78 0.70 0.65 0.70 0.74 0.78 0.84 0.86 0.88 0.91 0.90 0.90 0.91 0.97 0.97 0.96 0.96 0.98 0.99 1.02
0.95 0.94 0.92 0.87 0.84 0.81 0.78 0.75 0.74 0.73 0.72 0.70 0.68 0.66 0.64 0.65 0.64 0.63 0.61 0.59 0.57 0.55 0.52 0.48 0.43 0.39 0.38 0.37 0.36 0.35 0.32 0.31 0.29 0.28 0.30 0.32 0.33 0.33 0.34 0.35 0.35 0.35 0.33 0.32 0.33 0.34 0.35 0.37 0.43 0.52 0.56 0.59 0.67 0.66 0.62 0.64 0.64 0.67 0.71 0.73 0.76 0.80 0.84 0.88 0.93 0.96 0.98 0.98 0.95 0.92 0.94 0.98 1.02 0.98
0.97 0.93 0.87 0.85 0.82 0.79 0.76 0.74 0.72 0.70 0.68 0.65 0.63 0.63 0.62 0.63 0.60 0.58 0.56 0.55 0.54 0.52 0.48 0.44 0.40 0.37 0.36 0.35 0.34 0.32 0.30 0.29 0.27 0.29 0.32 0.33 0.33 0.32 0.32 0.34 0.34 0.34 0.33 0.34 0.35 0.34 0.37 0.42 0.47 0.47 0.50 0.56 0.67 0.69 0.64 0.64 0.67 0.68 0.67 0.66 0.66 0.70 0.77 0.85 0.91 0.94 0.98 1.01 1.02 1.01 1.01 0.99 0.95 0.91
0.95 0.91 0.87 0.83 0.79 0.76 0.74 0.71 0.69 0.68 0.65 0.63 0.63 0.64 0.62 0.57 0.55 0.54 0.53 0.52 0.51 0.49 0.45 0.41 0.39 0.37 0.34 0.32 0.31 0.31 0.29 0.28 0.29 0.31 0.32 0.33 0.32 0.32 0.33 0.34 0.33 0.32 0.33 0.33 0.31 0.35 0.40 0.42 0.43 0.47 0.51 0.59 0.67 0.65 0.63 0.64 0.66 0.68 0.65 0.62 0.63 0.64 0.68 0.76 0.84 0.91 0.97 1.00 1.00 1.02 1.04 1.06 1.07 1.07
0.93 0.89 0.85 0.80 0.77 0.75 0.73 0.69 0.67 0.68 0.66 0.64 0.64 0.62 0.60 0.58 0.56 0.56 0.54 0.52 0.45 0.40 0.37 0.35 0.34 0.33 0.34 0.32 0.31 0.29 0.28 0.28 0.31 0.33 0.33 0.31 0.31 0.33 0.34 0.32 0.31 0.30 0.31 0.30 0.32 0.35 0.37 0.38 0.39 0.45 0.57 0.66 0.66 0.65 0.66 0.68 0.68 0.65 0.60 0.59 0.59 0.63 0.68 0.72 0.74 0.80 0.87 0.92 0.97 1.00 1.01 1.03 1.05 1.07
Wind_Speed
11 12 12 12 13 13 13 13 13 14 14 15 16 17 17 16 16 16 17 17 17 17 18 18 17 17 17 17 17 17 18 19 19 19 19 19 20 20 21 21 22 22 23 24 24 24 25 26 26 26 26 27 27 27 27 27 27 27 27 27 27 26 26 26 26 26 27 27 28 28 29 29 30 30
12 13 13 13 13 13 13 14 14 15 16 16 17 17 17 16 16 16 16 17 17 17 17 17 17 18 17 17 18 19 19 20 20 21 21 21 21 21 22 22 23 23 23 23 24 24 25 26 27 27 27 27 27 28 28 28 28 28 28 29 29 28 28 28 27 27 27 28 29 29 30 30 31 31
13 13 13 13 14 14 14 15 15 15 16 16 16 17 17 17 16 16 16 16 17 17 17 18 18 18 19 19 19 20 21 22 22 22 23 23 23 23 23 24 24 24 24 24 24 25 25 26 27 28 28 28 29 29 29 29 29 29 29 29 29 29 29 29 29 29 29 29 29 30 31 31 32 32
14 14 14 14 14 15 15 16 16 16 16 15 15 16 16 16 16 17 17 17 18 18 18 18 19 19 20 20 20 21 22 23 24 24 24 24 24 24 24 24 25 25 25 25 25 26 26 27 28 29 30 30 30 31 31 30 30 30 30 30 30 31 31 31 31 31 31 31 30 31 31 32 33 33
15 15 15 15 15 15 16 16 16 16 16 16 15 16 16 16 16 17 17 18 18 19 18 18 19 19 20 20 21 23 23 24 24 25 25 26 25 25 25 26 26 27 27 27 28 28 28 28 29 30 31 32 32 32 32 31 30 30 31 31 32 32 32 32 32 33 33 33 33 32 32 32 33 34
16 16 16 16 16 16 16 17 17 17 17 16 16 16 16 17 17 17 18 18 19 20 20 19 19 19 19 20 22 23 24 25 25 26 26 27 27 27 28 28 28 29 29 29 30 30 30 31 31 32 32 33 33 33 33 32 32 32 32 33 33 33 33 34 34 34 34 34 34 34 34 34 34 34
17 17 18 18 18 17 17 17 18 17 17 17 17 17 17 17 18 18 19 20 21 21 21 21 21 20 20 21 22 23 24 25 26 26 27 28 29 29 30 30 30 31 31 31 32 32 32 33 33 33 34 34 35 34 34 33 33 33 34 34 34 34 34 34 34 35 35 35 35 35 36 36 36 36
18 18 19 19 19 18 18 18 18 18 18 18 18 18 18 18 18 19 20 21 21 22 22 23 23 23 23 23 24 25 26 26 26 27 28 29 30 30 31 32 32 32 33 33 33 33 34 34 35 35 36 36 35 35 34 35 35 35 35 35 35 35 36 36 36 36 36 36 36 37 37 38 38 38
19 19 19 20 19 19 19 19 18 18 19 19 19 19 19 19 19 20 21 21 22 23 24 24 24 24 25 25 26 27 28 28 29 29 30 31 31 31 31 32 32 32 32 32 33 33 34 35 35 35 36 35 35 35 35 36 36 36 36 36 37 37 37 37 37 38 38 38 38 38 38 39 39 39
20 20 20 20 20 20 19 19 19 19 19 19 19 19 20 20 21 22 22 22 23 24 25 26 26 26 27 27 28 29 30 31 31 32 32 32 31 31 31 31 31 32 32 32 32 33 34 34 34 35 35 36 36 36 36 36 37 37 37 38 38 38 38 38 39 39 39 39 39 39 39 39 39 39
21 21 20 20 20 20 20 20 20 20 20 20 20 21 21 22 23 23 23 24 24 25 26 27 28 29 29 29 30 31 32 32 33 33 33 32 31 31 31 31 31 31 31 31 32 32 33 33 34 35 36 36 37 37 37 37 38 38 38 38 38 38 38 39 39 39 39 39 39 39 39 39 39 40
22 22 21 21 21 21 21 21 21 21 21 21 22 22 23 23 24 24 25 25 25 26 27 28 29 30 30 31 32 33 33 33 33 32 32 32 31 30 30 30 31 31 31 31 31 32 33 34 35 36 36 37 37 37 37 38 38 38 38 38 38 39 39 38 39 39 40 39 39 39 40 40 41 41
22 22 22 22 22 22 22 22 23 23 23 22 22 23 24 24 24 25 25 26 26 27 28 29 29 29 30 31 33 33 33 33 32 32 32 32 31 31 31 31 31 31 32 32 32 33 34 35 36 36 36 37 37 38 38 38 38 38 38 38 38 38 38 39 39 39 39 40 40 41 41 41 42 42
23 23 23 23 23 23 23 23 23 23 23 23 23 23 24 24 25 25 25 26 27 28 28 29 29 30 31 32 33 34 33 32 32 32 32 32 32 32 32 33 33 33 33 34 34 35 36 36 37 37 37 37 37 37 37 37 37 37 37 37 37 37 38 38 38 39 39 40 41 42 42 42 43 44
24 24 23 24 23 23 23 23 23 23 23 23 23 24 24 25 25 26 27 28 29 29 30 30 31 31 33 34 34 34 33 33 33 33 33 33 33 33 33 33 33 33 34 35 36 37 37 37 37 36 36 36 36 35 35 35 35 35 35 36 36 37 37 38 38 39 40 40 41 42 43 43 44 45
24 24 24 24 24 23 23 23 23 23 23 23 24 25 25 26 27 27 28 29 30 30 30 31 32 33 34 34 34 34 34 33 33 33 33 33 34 34 33 34 34 34 35 36 37 37 36 36 36 35 34 34 33 33 34 34 34 35 35 36 37 37 37 38 38 39 40 41 42 43 44 45 45 46
24 24 24 24 24 24 24 23 23 23 23 24 25 25 26 27 27 28 29 30 30 30 31 32 33 33 34 34 34 34 34 33 33 34 34 34 34 34 34 34 35 35 36 36 37 36 35 34 34 34 33 32 33 33 34 34 35 35 36 36 36 37 37 38 39 40 41 42 43 43 44 44 44 44
24 24 24 24 24 24 24 23 23 23 24 25 26 26 26 27 28 29 30 30 31 31 32 33 33 34 34 34 35 35 34 34 34 34 34 34 34 34 34 35 35 36 35 35 34 34 33 32 33 33 32 32 33 33 34 34 35 35 35 36 37 38 39 39 40 41 41 41 42 42 43 43 43 44
25 25 25 24 24 24 24 23 23 24 25 25 26 26 27 28 28 29 29 30 30 31 32 32 33 34 34 35 35 34 34 34 34 34 34 33 34 34 35 35 35 34 33 32 32 33 33 32 33 33 33 32 32 33 34 34 34 35 37 38 39 39 39 39 39 39 39 39 40 41 42 43 44 44
25 25 25 24 24 24 24 24 24 25 25 26 26 27 27 28 29 29 29 30 31 32 32 33 33 34 34 34 34 33 33 33 33 33 33 34 34 34 34 34 33 32 31 31 32 33 33 32 32 32 32 32 32 32 33 34 35 37 37 37 37 36 36 36 37 37 38 39 40 41 42 43 44 45
25 25 25 25 25 25 25 24 25 25 26 26 27 28 28 29 29 29 29 30 31 31 32 32 33 33 33 33 33 33 32 32 32 33 33 33 33 33 32 32 31 31 30 30 31 32 32 31 31 31 31 32 32 33 33 34 35 35 34 33 33 33 34 35 36 37 38 39 40 41 42 43 44 45
25 25 25 25 25 25 24 24 25 26 26 27 28 28 28 28 29 29 29 30 30 31 31 32 32 32 33 33 33 32 32 32 32 32 32 32 32 32 31 31 31 30 29 29 30 31 31 31 31 31 32 32 33 33 33 32 31 31 31 31 31 32 33 34 35 36 38 39 40 41 42 43 44 45
25 25 25 24 24 24 24 25 26 27 27 27 28 27 27 28 29 29 30 30 31 31 32 32 32 33 33 33 32 31 31 31 31 31 31 31 31 31 30 30 29 29 28 28 28 30 30 30 30 31 32 32 31 30 29 28 28 28 29 30 30 32 33 34 35 36 37 38 39 40 41 43 43 44
24 24 24 24 24 24 25 25 26 27 27 27 26 26 27 28 29 29 30 31 31 31 31 32 32 32 32 31 30 30 30 30 30 30 29 29 29 28 28 27 27 27 27 27 28 29 29 30 30 31 31 30 28 27 27 27 27 28 28 29 30 31 32 33 34 35 37 38 39 40 41 43 43 44
23 23 23 24 24 24 25 25 26 26 26 26 26 27 28 28 29 29 30 31 31 32 32 32 32 31 30 30 29 29 29 28 28 27 27 26 26 26 26 27 27 28 28 28 28 28 28 28 29 29 28 27 28 28 28 28 28 28 28 29 30 30 31 32 33 35 36 38 39 40 42 43 44 44
22 23 23 24 24 24 25 25 26 25 25 25 26 27 27 28 28 29 30 30 31 31 31 31 30 29 29 28 28 28 27 27 27 26 26 27 27 27 27 27 28 28 27 27 27 27 27 27 27 27 27 27 28 28 28 28 28 28 28 28 29 30 31 32 34 35 36 38 39 41 42 43 43 43
22 22 23 24 24 24 24 25 25 24 24 25 26 27 27 28 28 29 29 30 30 30 30 29 28 27 27 27 27 27 27 27 27 27 27 28 28 28 28 27 27 26 26 26 26 26 26 27 27 27 27 27 27 27 27 28 28 28 28 28 29 30 31 32 34 35 37 38 40 41 42 41 41 40
22 22 23 23 24 24 24 24 24 24 24 26 26 27 27 28 28 29 29 29 29 28 27 27 26 26 26 26 27 26 26 27 27 27 27 26 26 26 26 25 25 25 25 25 25 25 25 26 26 27 27 27 27 27 27 27 28 28 28 29 29 30 31 33 34 36 37 38 39 39 39 37 36 35
22 22 22 23 23 23 23 23 23 24 25 26 27 27 27 28 28 28 28 27 26 26 26 25 25 25 26 26 26 26 26 27 27 26 25 25 25 24 24 24 24 24 24 24 24 24 25 25 26 26 26 26 27 27 27 28 28 28 29 30 30 30 31 33 35 36 37 38 38 37 35 34 32 32
21 22 23 23 23 23 23 23 24 25 26 26 27 27 27 28 27 27 26 26 26 26 26 26 25 25 26 26 26 26 27 27 26 25 24 24 24 24 23 23 23 23 23 23 24 24 25 25 25 26 26 26 26 27 28 28 28 28 29 30 30 30 31 33 35 36 37 37 37 36 33 31 30 30
22 23 23 23 23 23 23 24 24 25 26 27 27 27 27 27 27 26 25 25 26 26 25 25 25 25 25 26 26 26 27 26 25 24 24 24 23 23 23 23 22 22 23 23 24 24 25 25 25 25 26 26 26 27 27 27 28 29 29 29 29 30 32 34 35 35 35 35 35 34 31 29 28 28
23 23 23 23 23 23 24 24 25 26 27 27 27 27 27 27 26 26 26 26 26 26 26 25 25 25 25 25 26 26 26 25 24 23 23 23 22 22 22 22 22 22 23 23 24 24 25 25 24 25 25 25 26 27 27 27 28 28 28 28 29 30 32 33 34 34 34 34 34 32 30 28 27 27
23 23 23 23 23 24 24 25 25 26 27 28 28 27 27 26 26 25 25 26 26 26 25 24 24 24 24 25 25 25 24 23 22 22 22 22 22 22 21 22 22 22 23 23 24 24 24 24 24 24 24 24 25 26 27 27 27 26 26 28 29 30 31 32 33 34 34 33 33 31 28 27 27 26
23 23 23 23 24 24 24 25 26 27 27 27 27 27 26 25 25 25 25 25 24 23 22 22 22 23 24 24 23 23 23 22 22 21 21 21 21 21 21 21 22 22 23 23 23 23 23 23 23 23 23 24 25 26 26 25 25 26 27 28 29 30 31 32 33 33 33 31 31 30 27 26 26 25
23 23 23 24 24 24 25 25 26 26 26 26 26 26 25 24 24 23 23 23 22 22 22 22 23 23 23 23 22 22 22 22 21 21 20 20 20 21 21 21 22 22 22 23 23 23 23 23 23 23 23 24 25 25 24 24 25 26 27 28 29 30 30 31 32 32 32 30 29 28 26 25 25 24
23 23 24 24 24 25 25 26 26 26 25 25 25 25 24 23 22 21 21 21 22 22 22 23 23 23 22 22 22 21 21 21 20 20 20 20 20 21 21 21 21 22 22 22 23 23 23 23 23 22 22 23 23 24 24 25 25 26 27 28 29 29 30 31 31 31 30 29 28 26 24 23 24 24
23 23 24 24 24 25 25 25 25 24 24 24 23 21 20 20 20 19 20 20 20 21 21 22 22 22 21 21 21 21 20 20 20 20 20 20 20 21 21 21 21 22 22 22 22 23 23 23 23 22 21 22 22 23 24 25 26 26 26 28 29 29 30 30 31 30 30 28 26 24 23 23 23 22
23 23 24 24 24 24 24 24 23 22 22 21 20 19 18 18 18 19 19 19 19 20 20 21 21 21 20 20 21 20 20 19 19 19 20 20 20 20 21 21 21 21 22 22 22 22 23 23 22 22 21 22 22 22 23 24 25 26 26 28 28 29 29 30 30 30 29 27 26 24 22 21 21 21
23 24 24 23 24 24 24 23 21 20 19 18 18 18 18 18 18 18 18 18 19 19 19 20 21 20 20 20 20 19 19 19 19 19 19 20 20 20 20 21 21 21 22 22 22 22 22 22 22 22 22 22 22 22 23 24 25 25 26 27 28 28 29 30 30 29 28 26 25 24 22 20 20 20
23 23 23 23 24 23 22 20 19 18 17 17 17 17 17 17 17 17 17 18 18 19 19 20 20 19 19 18 18 18 19 19 19 19 20 20 20 20 20 21 21 21 21 22 22 22 22 22 23 22 22 22 23 23 23 24 24 25 25 26 26 27 28 29 29 29 27 26 25 23 21 19 18 18
23 23 24 23 23 21 19 18 18 17 17 17 17 16 16 16 16 16 16 17 18 18 19 19 18 18 17 17 18 18 18 18 19 19 19 19 20 20 21 21 21 21 21 21 21 22 22 22 23 23 22 22 22 22 22 22 23 24 24 25 26 27 27 28 28 28 27 25 24 22 19 17 17 16
23 23 23 22 20 19 18 18 17 17 17 16 16 16 16 16 15 16 16 17 17 18 18 18 18 17 17 18 18 18 18 18 19 19 19 19 20 20 20 20 21 21 21 21 21 22 22 22 22 22 22 22 21 20 21 21 22 23 24 25 25 26 27 28 28 28 26 24 22 20 18 16 14 14
22 22 21 20 19 18 17 17 16 16 16 15 15 15 15 15 15 15 16 16 17 18 18 18 17 17 17 18 18 18 18 19 19 18 19 19 20 20 20 20 20 21 21 21 21 22 22 22 22 22 21 20 19 19 19 20 21 22 23 24 25 26 26 27 27 27 27 24 22 19 17 15 13 13
22 22 20 19 18 17 17 16 15 15 15 14 14 14 14 15 15 15 16 17 18 18 17 17 17 17 17 17 18 18 19 19 18 18 19 19 19 19 20 20 20 21 21 21 21 21 21 21 21 21 19 18 18 18 19 20 20 21 23 24 25 25 26 26 26 26 26 24 22 19 17 15 13 13
22 20 19 18 17 16 16 15 15 15 14 14 14 14 14 15 15 16 17 17 17 17 17 17 16 16 17 17 17 18 19 19 18 18 18 18 19 19 19 20 20 20 20 20 21 21 21 21 21 19 18 17 16 17 18 19 19 20 22 23 24 25 25 26 26 26 25 24 23 20 18 15 13 12
Wind_Direction
316 315 312 309 307 304 302 297 294 293 293 293 292 293 295 296 296 295 293 291 289 288 289 288 288 288 285 281 280 281 282 284 286 286 285 283 281 279 279 278 278 276 275 275 276 277 277 278 278 279 280 281 281 281 281 280 278 275 274 274 274 273 271 270 270 269 268 268 267 266 264 262 260 259
315 314 314 312 309 307 304 301 297 295 294 294 294 294 295 296 295 294 293 292 290 289 290 289 287 288 286 282 281 282 283 285 286 286 287 286 283 282 281 281 280 279 278 277 276 276 276 277 277 278 279 280 281 281 281 281 278 275 274 273 274 274 273 271 270 270 269 267 266 266 265 263 261 260
313 313 312 311 310 308 305 303 301 299 297 296 295 295 295 295 294 292 292 293 292 290 290 289 288 287 285 282 282 283 283 283 284 284 285 285 284 283 283 282 281 280 278 277 277 277 277 277 278 278 279 280 281 282 282 281 279 276 274 273 273 273 273 272 271 270 270 268 267 265 264 264 263 261
313 313 312 309 308 307 304 303 302 300 300 297 295 294 294 294 293 292 291 292 292 291 289 288 289 289 287 284 283 283 283 283 283 283 284 284 283 283 283 283 282 281 279 278 278 278 278 278 279 279 280 281 282 282 282 282 280 277 275 274 273 273 273 272 271 270 270 270 268 266 263 262 262 262
311 312 311 309 308 307 305 304 303 301 299 297 293 291 291 292 292 291 291 292 293 293 292 290 291 292 289 287 286 286 285 285 285 285 285 285 284 283 283 282 281 280 279 278 278 279 279 280 280 280 281 282 283 282 282 281 280 277 276 275 275 275 274 273 272 271 270 269 269 267 264 262 261 261
307 308 308 307 307 306 303 302 302 302 300 297 295 293 292 291 291 290 290 291 292 294 293 292 292 293 291 289 289 289 289 289 288 287 286 286 285 283 283 282 282 280 279 278 278 278 279 280 281 281 281 282 283 282 281 280 279 278 277 276 275 275 275 274 273 272 271 270 268 267 266 264 262 261
303 305 304 303 304 303 300 298 299 300 300 297 296 295 292 291 291 289 288 288 289 291 291 290 291 292 291 291 292 292 292 292 291 290 289 287 286 285 284 283 283 281 280 278 278 278 278 280 281 281 282 282 282 281 279 278 278 278 278 277 276 275 274 273 273 272 271 270 269 268 267 266 264 262
302 303 303 302 301 300 297 296 297 298 297 296 295 295 293 292 292 292 290 289 290 290 290 290 290 290 291 293 294 294 294 293 292 292 292 291 289 287 286 286 285 284 282 280 279 279 280 281 282 282 282 282 281 280 278 278 278 279 278 278 277 275 274 273 273 273 272 271 270 269 268 267 265 264
301 302 303 303 301 298 297 296 295 295 294 293 293 293 293 293 293 293 292 291 290 289 290 290 290 290 291 294 295 296 295 294 293 293 293 293 292 290 289 289 288 286 284 282 281 281 281 282 282 282 282 282 281 280 278 277 277 278 278 278 278 276 275 273 273 273 272 272 271 270 269 268 266 265
301 301 302 303 301 298 297 295 294 293 292 292 291 291 291 293 293 293 292 290 289 288 288 289 289 289 291 293 295 296 295 294 294 294 294 294 293 291 290 290 289 288 286 284 283 282 283 282 282 281 281 281 281 281 280 278 278 278 278 278 277 276 275 273 273 272 272 272 271 270 269 268 267 266
300 300 300 301 300 298 296 295 293 292 290 289 288 288 289 292 292 292 290 290 289 289 288 288 288 288 290 292 293 295 295 294 294 294 294 294 294 292 291 291 291 289 287 285 284 284 284 284 283 282 281 281 282 282 281 280 279 278 278 277 276 275 274 273 272 272 272 271 270 269 269 268 267 266
297 298 298 298 297 296 295 294 292 290 289 288 287 287 289 289 289 289 289 290 290 290 290 290 289 289 291 292 293 295 295 295 295 294 294 294 294 293 291 291 291 289 287 285 285 285 285 285 285 284 283 283 283 283 282 280 279 278 278 277 276 275 275 274 273 272 272 271 270 269 268 268 267 266
294 295 296 296 295 294 293 293 291 289 289 289 289 288 289 289 289 290 290 291 291 291 291 291 292 292 293 294 295 296 296 296 295 295 294 293 293 292 291 291 290 288 287 287 286 286 287 287 287 286 285 284 284 283 282 281 280 279 278 277 277 276 275 274 273 272 272 271 270 270 269 268 267 266
293 293 294 296 294 292 292 292 290 288 289 290 290 289 289 289 290 290 290 291 292 292 291 292 293 294 294 295 296 296 296 295 295 294 294 293 293 292 292 291 290 289 289 288 288 288 288 288 287 286 285 285 284 283 282 281 280 280 279 278 277 276 275 274 273 272 272 272 271 270 269 268 266 265
294 293 294 295 294 292 292 292 290 288 288 289 290 289 289 288 287 288 290 292 292 292 292 293 294 294 295 296 297 296 296 295 295 294 293 294 294 294 292 291 290 290 290 290 290 290 289 289 287 286 286 285 284 283 282 282 281 281 280 279 279 277 276 274 273 273 272 271 270 270 268 267 266 265
294 293 294 294 293 292 291 291 289 287 287 288 290 291 290 288 287 288 290 292 293 293 293 294 294 294 294 295 296 296 296 295 295 294 294 294 294 293 292 291 290 291 292 291 291 290 290 289 287 287 286 286 285 284 283 283 283 282 281 280 279 278 276 274 273 272 272 271 270 269 268 267 266 265
293 293 293 293 293 292 290 288 287 287 287 289 291 291 291 290 290 290 292 293 294 295 295 294 294 294 294 295 296 296 296 295 295 294 294 293 292 291 291 290 291 292 293 292 290 290 290 289 288 287 287 287 286 286 285 284 283 282 281 280 278 277 275 275 274 274 273 272 271 270 269 268 266 265
291 291 292 292 291 290 289 287 287 287 289 291 292 292 292 292 292 293 294 295 296 296 296 295 295 295 296 296 296 297 296 295 295 295 294 293 292 291 291 291 292 292 292 291 290 289 289 289 288 288 288 288 287 286 284 284 283 281 280 279 278 277 277 277 277 276 275 274 273 272 271 269 268 266
290 290 291 291 290 289 288 287 287 289 291 292 293 293 293 294 294 295 296 296 297 297 297 296 296 297 297 297 297 297 296 296 295 294 293 293 293 292 292 292 292 292 291 290 290 289 290 291 290 289 290 289 287 285 284 283 282 281 281 280 280 280 279 279 278 278 277 276 275 274 272 271 269 266
288 289 290 290 289 287 287 287 288 290 292 293 293 293 294 295 296 296 297 297 297 297 297 297 298 298 298 297 297 296 296 295 294 294 294 294 293 293 292 292 292 292 291 291 290 290 291 292 291 291 290 289 287 286 285 284 284 283 283 283 282 281 280 280 279 279 278 277 276 275 274 272 269 267
287 288 288 288 288 287 287 287 289 291 293 294 294 294 295 296 296 297 298 298 298 298 299 299 299 299 299 298 297 296 295 294 294 294 295 295 294 293 293 293 292 292 292 292 292 291 292 293 292 291 290 289 289 288 288 287 287 286 285 283 282 282 281 281 281 280 279 278 277 276 275 273 271 269
287 287 286 286 288 288 288 289 289 291 294 295 295 295 296 297 297 298 299 299 299 300 301 301 300 300 299 299 298 296 295 294 295 295 295 295 295 294 293 293 293 293 293 293 293 293 293 293 293 293 292 291 290 290 290 289 288 286 285 284 283 283 283 283 283 282 281 280 279 278 277 275 273 272
287 287 286 286 288 289 289 289 290 292 294 296 296 296 297 298 299 299 300 300 301 302 301 301 300 300 300 300 299 298 297 296 296 295 295 295 295 294 294 294 294 294 293 293 295 295 294 294 295 296 295 293 292 292 291 290 288 286 286 285 284 285 285 285 285 284 283 282 281 280 279 278 276 274
286 287 287 287 288 289 290 291 292 294 296 297 297 298 298 299 299 300 300 301 302 302 301 301 301 301 301 301 300 300 299 298 297 297 296 296 296 295 295 295 294 294 293 294 296 296 295 296 297 297 296 294 293 294 293 291 289 288 288 287 287 287 287 288 288 287 287 286 284 283 282 280 278 276
286 287 288 288 289 290 292 294 295 296 296 297 299 299 300 300 301 301 302 302 303 302 302 302 302 302 301 301 300 300 300 300 299 298 297 298 297 296 296 295 295 294 295 296 296 296 297 299 299 299 297 296 295 295 293 292 291 290 290 289 289 289 290 290 291 291 291 290 288 286 285 283 281 279
286 287 289 290 291 292 294 295 296 296 297 298 300 301 302 302 302 303 303 304 304 304 303 303 303 301 301 301 301 301 301 300 299 298 297 297 296 296 296 296 296 296 297 297 297 297 298 299 300 299 298 297 297 295 294 293 293 292 291 290 291 291 292 293 293 294 294 293 291 289 288 286 284 280
287 289 291 292 293 294 295 296 296 296 298 300 302 302 303 302 303 304 306 306 306 305 304 303 302 301 302 303 303 302 301 300 300 299 298 297 296 296 296 296 297 298 298 299 298 298 298 298 298 298 298 297 297 296 295 295 295 295 293 292 293 294 295 296 296 297 297 296 295 293 291 289 285 280
288 290 292 294 295 296 296 296 296 297 299 301 302 303 303 303 304 306 308 308 308 306 304 302 301 302 303 304 304 303 302 301 301 300 298 297 297 297 298 298 299 299 299 299 298 298 298 298 298 298 298 297 297 297 297 297 297 297 296 295 295 296 298 298 299 300 300 299 299 298 295 290 286 280
290 292 294 297 298 297 297 297 298 299 300 302 303 303 303 304 306 307 308 308 308 306 304 302 301 302 303 304 304 304 303 303 303 302 300 299 300 300 300 300 299 299 298 298 298 299 300 299 299 299 299 298 298 298 299 298 298 298 298 298 297 298 300 301 302 303 303 303 303 301 297 290 285 281
294 295 297 299 300 299 299 299 300 301 302 302 302 303 304 305 306 307 307 307 307 306 304 302 301 301 302 303 304 304 305 304 303 303 302 302 302 302 302 301 300 299 299 300 300 301 301 301 301 300 300 300 300 299 299 299 299 300 300 300 299 300 302 303 304 305 305 305 305 303 297 291 285 282
296 297 299 300 300 300 300 300 301 302 302 303 303 304 305 305 306 305 305 305 305 305 304 303 301 300 301 303 304 305 305 305 304 303 303 303 302 302 302 301 300 300 301 301 302 302 302 302 302 302 301 301 301 301 302 301 301 301 302 302 302 303 304 305 306 306 306 307 306 303 298 291 286 284
296 297 298 299 300 300 300 301 302 303 303 304 305 305 305 305 305 305 304 304 305 305 305 303 302 301 302 304 306 307 307 306 305 304 303 302 302 302 302 301 300 301 302 303 304 304 304 303 304 304 303 302 302 304 304 304 303 303 303 304 305 306 307 307 308 308 308 308 307 304 298 291 286 284
296 297 298 298 299 299 300 301 302 303 304 305 305 305 305 305 305 304 304 305 305 305 304 303 302 303 304 306 308 309 309 307 306 305 303 302 303 303 302 301 301 301 302 303 305 306 306 306 306 306 305 304 305 306 307 306 305 305 306 308 308 309 309 310 310 310 310 309 308 304 299 292 287 286
295 296 297 297 298 299 300 301 302 304 305 305 305 305 304 304 304 304 305 305 306 307 307 306 306 307 307 308 310 311 310 308 306 304 303 303 304 304 303 303 303 303 304 305 307 308 308 308 308 308 307 307 308 309 308 307 306 307 309 311 311 311 312 312 312 312 311 310 309 305 299 292 288 289
294 295 296 297 297 299 301 302 303 304 305 305 305 304 304 303 303 304 305 306 307 310 311 311 311 311 311 311 312 311 309 307 305 305 304 305 305 305 305 305 305 306 306 307 308 309 310 310 310 309 309 311 312 312 311 310 309 310 312 313 314 314 315 315 315 314 313 312 310 306 300 293 289 290
293 294 295 296 298 300 302 302 303 303 304 304 304 304 304 304 305 305 306 307 309 312 314 314 313 313 313 313 313 311 308 307 306 306 306 306 307 307 307 307 307 308 308 309 309 310 311 311 310 308 310 313 314 314 314 313 312 313 314 316 317 318 318 318 318 316 315 314 312 308 301 294 290 289
292 294 296 298 300 301 302 303 303 304 305 306 307 307 306 307 307 308 310 311 314 316 317 316 315 314 314 314 313 310 308 308 308 308 307 308 308 309 309 309 309 310 310 310 310 311 312 311 310 309 310 314 314 314 315 316 316 316 317 319 320 321 321 321 321 319 318 315 313 309 303 295 289 288
292 295 297 299 300 302 303 304 304 304 305 306 307 308 308 308 309 311 312 315 319 321 320 320 318 315 315 315 313 311 310 310 309 309 309 310 310 310 310 311 311 311 311 311 311 312 312 312 311 311 311 313 314 314 316 317 317 318 320 322 323 324 324 325 324 322 320 318 315 310 303 294 289 287
293 296 297 299 301 303 305 305 304 303 304 305 306 307 308 309 310 311 313 316 319 321 322 322 320 318 316 316 314 312 312 311 310 310 311 311 311 311 312 312 312 312 312 312 312 313 313 314 314 313 312 311 312 314 316 317 318 319 322 324 325 326 327 327 326 325 323 321 318 312 304 294 289 287
294 295 297 299 301 303 304 304 303 303 303 304 306 307 308 310 311 312 314 317 319 321 323 324 324 323 321 318 316 315 314 312 312 312 312 312 312 313 313 313 313 313 313 313 313 313 314 315 315 313 312 311 312 313 315 317 319 321 324 326 328 329 330 330 329 329 327 325 322 316 307 298 292 289
293 295 297 299 301 302 302 301 302 302 303 304 306 307 308 310 311 313 315 317 319 321 323 324 326 327 325 322 320 318 316 315 314 314 313 313 313 314 315 315 315 315 314 314 314 314 315 315 314 313 312 312 313 313 316 319 321 323 326 328 329 330 331 332 333 332 331 328 325 320 312 301 293 289
294 296 298 299 299 299 299 299 298 299 301 304 304 305 306 308 309 311 314 316 318 320 322 323 325 326 325 324 322 321 320 318 317 316 315 315 315 315 316 316 316 316 316 315 315 315 315 316 316 316 315 315 314 314 317 320 322 325 327 329 330 331 332 333 335 336 335 332 329 324 317 307 295 289
294 295 296 296 297 297 297 296 295 297 299 301 301 302 304 307 308 311 313 315 317 319 321 323 324 323 323 324 323 323 322 321 319 318 318 317 316 316 317 318 318 318 318 317 317 317 317 318 320 320 318 316 314 315 319 322 325 327 329 330 331 333 335 335 337 338 338 336 332 328 322 313 300 290
293 294 294 293 293 293 293 293 294 295 296 297 298 301 304 305 308 311 313 316 318 319 321 322 322 321 322 323 324 325 324 323 322 321 319 318 319 319 319 320 320 320 320 319 319 319 319 321 323 322 319 316 316 320 323 325 327 330 332 333 334 336 337 338 339 340 340 339 336 331 325 317 304 293
292 291 290 290 290 291 291 292 292 292 292 293 297 300 303 304 307 309 312 316 319 320 321 321 320 320 321 323 324 325 326 326 325 323 321 320 322 322 323 324 324 323 324 323 322 321 321 323 324 323 319 318 322 325 327 328 329 332 335 336 337 339 340 341 342 342 343 343 341 336 330 322 311 299